Naples, Italy

7:32 AM CET on February 28, 2017 (GMT +0100)
Naples

Weather History for LIRN - August, 2014

Change the Weather History Date:

Thursday, August 28, 2014

  Actual Average Record
Temperature  
Mean Temperature 79 °F -  
Max Temperature 88 °F 79 °F 91 °F (2015)
Min Temperature 70 °F 60 °F 39 °F (2002)
Cooling Degree Days 14    
Growing Degree Days 29 (Base 50)    
Moisture  
Dew Point 66 °F    
Average Humidity 65    
Maximum Humidity 88    
Minimum Humidity 30    
Precipitation  
Precipitation 0.00 in 0.10 in - ()
Sea Level Pressure  
Sea Level Pressure 29.93 in    
Wind  
Wind Speed 3 mph ()    
Max Wind Speed 10 mph    
Max Gust Speed -    
Visibility 7.6 miles    
Events      
Averages and records for this station are not official NWS values.
T = Trace of Precipitation, MM = Missing Value Source: Averaged Metar Reports

Daily Weather History Graph

Daily Weather History Graph

Search for Another Location

Airport or City:

Trip Planner

Search our weather history database for the weather conditions in past years. The results will help you decide how hot, cold, wet, or windy it might be!

Date:

Astronomy

Aug. 28, 2014 Rise Set
Actual Time 6:25 AM CEST 7:41 PM CEST
Civil Twilight 5:57 AM CEST 8:10 PM CEST
Nautical Twilight 5:22 AM CEST 8:44 PM CEST
Astronomical Twilight 4:46 AM CEST 9:20 PM CEST
Moon 9:02 AM CEST 8:55 PM CEST
Length of Visible Light 14h 13m
Length of Day
13h 16m
Waxing Crescent, 7% of the Moon is Illuminated
Aug 28
Waxing Crescent
Sep 2
First Quarter
Sep 9
Full
Sep 16
Last Quarter
Sep 24
New

Hourly Weather History & Observations

Time (CEST) Temp. Heat Index Dew Point Humidity Pressure Visibility Wind Dir Wind Speed Gust Speed Precip Events Conditions
12:20 AM 75.2 °F - 68.0 °F 78% 29.95 in 6.2 mi Variable 2.3 mph - N/A   Partly Cloudy
12:50 AM 73.4 °F - 68.0 °F 83% 29.95 in 6.2 mi Calm Calm - N/A   Partly Cloudy
1:20 AM 73.4 °F - 68.0 °F 83% 29.95 in 6.2 mi Calm Calm - N/A   Partly Cloudy
1:50 AM 73.4 °F - 68.0 °F 83% 29.92 in 6.2 mi Calm Calm - N/A   Partly Cloudy
2:00 AM 73 °F - 67 °F 78% 29.94 in 6 mi NE 2.3 mph - -   Scattered Clouds
2:20 AM 73.4 °F - 68.0 °F 83% 29.92 in 6.2 mi Variable 2.3 mph - N/A   Partly Cloudy
2:50 AM 73.4 °F - 68.0 °F 83% 29.92 in 6.2 mi Variable 1.2 mph - N/A   Partly Cloudy
3:20 AM 71.6 °F - 68.0 °F 88% 29.92 in 6.2 mi Variable 1.2 mph - N/A   Partly Cloudy
3:50 AM 71.6 °F - 66.2 °F 83% 29.92 in 6.2 mi Variable 1.2 mph - N/A   Partly Cloudy
4:20 AM 71.6 °F - 66.2 °F 83% 29.92 in 6.2 mi NE 3.5 mph - N/A   Partly Cloudy
4:50 AM 71.6 °F - 66.2 °F 83% 29.92 in 6.2 mi NNE 2.3 mph - N/A   Partly Cloudy
5:00 AM 71 °F - 66 °F 78% 29.91 in 6 mi NNE 2.3 mph - -   Scattered Clouds
5:20 AM 71.6 °F - 66.2 °F 83% 29.92 in 6.2 mi NNE 2.3 mph - N/A   Partly Cloudy
5:50 AM 71.6 °F - 66.2 °F 83% 29.92 in 6.2 mi North 3.5 mph - N/A   Partly Cloudy
6:20 AM 71.6 °F - 66.2 °F 83% 29.92 in - Variable 4.6 mph - N/A   Clear
6:50 AM 71.6 °F - 66.2 °F 83% 29.92 in - WNW 2.3 mph - N/A   Clear
7:20 AM 73.4 °F - 66.2 °F 78% 29.92 in - Variable 2.3 mph - N/A   Clear
7:50 AM 75.2 °F - 66.2 °F 73% 29.92 in - North 3.5 mph - N/A   Clear
8:00 AM 75 °F - 67 °F 69% 29.93 in 16 mi North 3.5 mph - -  
8:20 AM 77.0 °F - 66.2 °F 69% 29.92 in - North 2.3 mph - N/A   Clear
8:50 AM 78.8 °F - 64.4 °F 61% 29.92 in - NNE 3.5 mph - N/A   Clear
9:20 AM 80.6 °F 82.7 °F 66.2 °F 61% 29.95 in - Variable 2.3 mph - N/A   Clear
9:50 AM 82.4 °F 84.6 °F 66.2 °F 58% 29.95 in - Variable 2.3 mph - N/A   Clear
10:20 AM 84.2 °F 86.6 °F 66.2 °F 55% 29.95 in - Variable 1.2 mph - N/A   Clear
10:50 AM 84.2 °F 85.6 °F 64.4 °F 51% 29.95 in - Variable 2.3 mph - N/A   Clear
11:00 AM 85 °F - 68 °F 47% 29.94 in 16 mi South 4.6 mph - -  
11:20 AM 84.2 °F 87.3 °F 68.0 °F 58% 29.95 in 6.2 mi SSW 6.9 mph - N/A   Partly Cloudy
11:50 AM 84.2 °F 86.6 °F 66.2 °F 55% 29.95 in 6.2 mi South 5.8 mph - N/A   Partly Cloudy
12:20 PM 84.2 °F 85.6 °F 64.4 °F 51% 29.95 in 6.2 mi South 6.9 mph - N/A   Partly Cloudy
12:50 PM 84.2 °F 86.6 °F 66.2 °F 55% 29.95 in 6.2 mi SSW 8.1 mph - N/A   Partly Cloudy
1:20 PM 86.0 °F 87.3 °F 64.4 °F 48% 29.92 in 6.2 mi SSW 9.2 mph - N/A   Partly Cloudy
1:50 PM 87.8 °F 87.6 °F 60.8 °F 40% 29.92 in 6.2 mi South 9.2 mph - N/A   Partly Cloudy
2:00 PM 87 °F - 60 °F 30% 29.93 in 16 mi South 9.2 mph - -   Scattered Clouds
2:20 PM 87.8 °F 87.1 °F 59.0 °F 38% 29.92 in 6.2 mi South 8.1 mph - N/A   Partly Cloudy
2:50 PM 87.8 °F 86.1 °F 55.4 °F 33% 29.92 in 6.2 mi South 9.2 mph - N/A   Partly Cloudy
3:20 PM 87.8 °F 87.6 °F 60.8 °F 40% 29.92 in 6.2 mi South 8.1 mph - N/A   Partly Cloudy
3:50 PM 86.0 °F 87.3 °F 64.4 °F 48% 29.92 in 6.2 mi South 10.4 mph - N/A   Partly Cloudy
4:50 PM 86.0 °F 88.2 °F 66.2 °F 51% 29.92 in 6.2 mi South 9.2 mph - N/A   Partly Cloudy
5:00 PM 85 °F - 65 °F 41% 29.91 in 16 mi South 9.2 mph - -   Scattered Clouds
5:20 PM 86.0 °F 87.3 °F 64.4 °F 48% 29.92 in 6.2 mi SSW 8.1 mph - N/A   Partly Cloudy
5:50 PM 84.2 °F 85.6 °F 64.4 °F 51% 29.92 in 6.2 mi South 6.9 mph - N/A   Partly Cloudy
6:20 PM 82.4 °F 83.4 °F 62.6 °F 51% 29.92 in 6.2 mi South 6.9 mph - N/A   Partly Cloudy
6:50 PM 82.4 °F 86.3 °F 69.8 °F 66% 29.92 in 6.2 mi South 5.8 mph - N/A   Partly Cloudy
7:20 PM 80.6 °F 82.7 °F 66.2 °F 61% 29.92 in 6.2 mi South 4.6 mph - N/A   Partly Cloudy
7:50 PM 80.6 °F 82.3 °F 64.4 °F 58% 29.92 in 6.2 mi South 3.5 mph - N/A   Partly Cloudy
8:00 PM 80 °F - 66 °F 54% 29.93 in 16 mi South 2.3 mph - -   Scattered Clouds
8:20 PM 78.8 °F - 68.0 °F 69% 29.95 in - South 2.3 mph - N/A   Clear
8:50 PM 78.8 °F - 68.0 °F 69% 29.95 in - SSW 2.3 mph - N/A   Clear
9:20 PM 78.8 °F - 69.8 °F 74% 29.95 in - NW 3.5 mph - N/A   Clear
9:50 PM 78.8 °F - 69.8 °F 74% 29.95 in - Variable 2.3 mph - N/A   Clear
10:20 PM 78.8 °F - 71.6 °F 78% 29.95 in - Variable 2.3 mph - N/A   Clear
10:50 PM 78.8 °F - 71.6 °F 78% 29.95 in - Variable 2.3 mph - N/A   Clear
11:20 PM 77.0 °F - 71.6 °F 83% 29.95 in - Variable 3.5 mph - N/A   Clear
11:50 PM 77.0 °F - 69.8 °F 78% 29.95 in - NNW 5.8 mph - N/A   Clear